Regional Weather Roundup
Issued by NWS Northern Indiana

Home | Current Version | Previous Version | Text Only | Print | Product List | Glossary On
Versions: 1 2 3 4 5 6 7 8 9 10 11 12 13 14 15 16 17 18 19 20 21 22 23 24 25 26 27 28 29 30 31 32 33 34 35 36 37 38 39 40 41 42 43 44 45 46 47 48 49 50
000
ASUS43 KIWX 210910
RWRIWX

KIWX WEATHER ROUNDUP
NATIONAL WEATHER SERVICE NORTHERN INDIANA
500 AM EDT TUE APR 21 2015

NOTE: "FAIR" INDICATES FEW OR NO CLOUDS BELOW 12,000 FEET WITH NO
SIGNIFICANT WEATHER AND/OR OBSTRUCTIONS TO VISIBILITY.

* THESE STATIONS ARE NOT UNDER NWS QUALITY CONTROL. THEY ALSO MAY NOT
  REPORT WEATHER SUCH AS PRECIPITATION OR FOG.

INZ001>027-211000-
NORTHERN INDIANA

CITY           SKY/WX    TMP DP  RH WIND       PRES   REMARKS
GARY*          PTCLDY    44  29  55 SW6       29.62S
VALPARAISO     PTCLDY    39  33  79 SW12      29.63F
MICHIGAN CITY* PTCLDY    41  28  60 SW8       29.61F
LAPORTE*       PTCLDY    42  35  76 SW10      29.62F
KNOX*          PTCLDY    39  27  60 SW12      29.63F
SOUTH BEND     CLOUDY    43  32  65 SW13G18   29.61F
GOSHEN         CLOUDY    42  35  76 SW15      29.62F
MONTICELLO*    CLEAR     41  34  77 SW12G18   29.68R
LOGANSPORT*    CLEAR     39  36  87 SW13      29.69R
ROCHESTER*     PTCLDY    41  37  87 SW7       29.67R
WARSAW*        PTCLDY    41  34  75 SW10      29.64F
ANGOLA*        CLOUDY    43  36  75 SW10      29.61S
FORT WAYNE     PTCLDY    38  34  85 S9        29.66F
HUNTINGTON*    CLEAR     40  32  71 SW8       29.66F
PERU/GRISSOM   CLEAR     40  35  80 SW14      29.67S
MARION*        FAIR      41  34  74 SW15      29.69S

$$
INZ028>050-211000-
CENTRAL INDIANA

CITY           SKY/WX    TMP DP  RH WIND       PRES   REMARKS
LAFAYETTE      CLEAR     42  33  70 W8        29.70S
KOKOMO*        CLEAR     43  32  65 SW15      29.68S
MUNCIE*        CLEAR     43  34  70 SW12      29.70F
INDIANAPOLIS   CLEAR     42  33  70 SW12      29.73S

$$
MIZ043>046-050>051-056>058-064>065-071>073-077>080-211000-
SOUTHWEST LOWER MICHIGAN

CITY           SKY/WX    TMP DP  RH WIND       PRES   REMARKS
BATTLE CREEK   MOCLDY    40  34  79 SW12      29.56F
BENTON HARBOR  PTCLDY    41  33  73 SW17      29.58F
COLDWATER*     CLOUDY    41  33  73 SW13      29.59S
HILLSDALE*     CLOUDY    42  35  74 SW12G22   29.58F
HOLLAND        CLOUDY    42  33  70 SW21G31   29.54F
GRAND RAPIDS   CLOUDY    41  32  70 SW16      29.52S
KALAMAZOO      MOCLDY    42  34  73 SW12      29.57F
STURGIS*       CLOUDY    43  34  70 SW15G23   29.59S
THREE RIVERS*  CLOUDY    42  32  68 SW10G16   29.59S

$$
OHZ001>008-015>018-024>025-211000-
NORTHWEST OHIO

CITY           SKY/WX    TMP DP  RH WIND       PRES   REMARKS
WAUSEON*       CLOUDY    43  37  81 SW15      29.63F
DEFIANCE       MOCLDY    43  35  73 SW12      29.65F
FINDLAY        PTCLDY    44  34  67 SW14      29.67S
TOLEDO EXPRESS   N/A     42  36  79 SW9       29.63F
TOLEDO METCALF MOCLDY    43  36  76 SW13      29.66R
LIMA           MOCLDY    44  33  65 SW10      29.69F

$$
AND FOR LAKE MICHIGAN COASTAL AND OPEN LAKE BUOY OBSERVATIONS

STATION/POSITION TEMP    WIND        PRES    VSBY  WAVE
                 AIR SEA DIR/SP/G                  HT/PER
                 (F)     (DEG/KT/KT) (MB)    (MI)  (FT/S)
CALUMET HARBOR    43     230/ 10/ 17   N/A
MICHIGAN CITY     44     200/ 18/ 22   N/A
BURNS HARBOR      44     220/ 14/ 18 1003.4F
SAINT JOSEPH      43     210/ 18/ 22 1002.0S
MICHIGAN CITY     44 45  250/ 17/ 21   N/A           4/ 4

$$
&&


USA.gov is the U.S. government's official web portal to all federal, state and local government web resources and services.